DMSP 5D-2 F13 DEB, 40608

Orbit data source: Space-Track

DMSP 5D-2 F13 DEB, 40608 is space debris in SSO originally from a launch on Fri, 24 Mar 1995 UTC launched from the Air Force Western Test Range (AFWTR). Debris objects in space refer to the collection of defunct objects orbiting the Earth. Examples of debris include non-operational satellites, rocket bodies, and fragments generated from explosions, collisions, or faulty payload assembly.

Loading next visibility...
Identifier
40608, 1995-015FF
Orbit
SSO
Country
Flag of USUS
Related business
Manufacturer
Unknown
Mission
Spacecraft
Bus & Motor
Unknown
Mass
Unknown
Launch date (UTC)
1995-03-24 (31 years ago)
Launch vehicle
Unknown
Launch site
Air Force Western Test Range (AFWTR)
Object type
Payload
Rocket body
Debris
Shape & HBR
Unknown shape, 0.1 m
Radar Cross Section
Medium (>0.1 m² and <1 m²)

Expand to show TLE details & history
Last TLE update: 19 hours ago

TLE from 19 hours ago
0 DMSP 5D-2 F13 DEB
1 40608U 95015FF  26251.00175028  .00000341  00000-0  16203-3 0  9990
2 40608  98.6138 266.0488 0032310  58.9925 301.4422 14.25429183591163
Epoch: 2026-09-08T00:02Z
TLE epoch observation values (Epoch: 2026-09-08T00:02:31.224Z)
Latitude
0.00005°
Longitude
-81.65573°
Altitude
797.917 km
Speed
7.461 km/s
True Right ascension
17h 44m 11s
True Declination
0° 00' 00"
Sunlit
Object was in daylight at epoch
Visualization orbit readout
Latitude
Unknown
Longitude
Unknown
Altitude
Unknown
Speed
Unknown
Apparent Right ascension
Unknown
Apparent Declination
Unknown
Sunlit
N/A
Visualization observer readout
Local Sidereal Time
10:44:19
Azimuth
Unknown
Elevation
Unknown
Doppler factor
Unknown
Orbital elements
Apogee altitude
827.403 km
Perigee altitude
780.991 km
Semi-major axis
7,182.334 km
Eccentricity
0.00323
Inclination
98.6138°
RAAN
266.0488°
Arg. of periapsis
58.9925°
True anomaly
301.12565°
Mean anomaly
301.4422°
Eccentric anomaly
301.28399°
Mean motion
3.5657 °/min
Orbital period
100.96 mins
BSTAR
0.00016203
Loading maneuver chart data...
Computing Atmospheric mass density...

Documentation

Showing up to 5 results
|